Regional Weather Roundup
Issued by NWS Newport/Morehead, NC

Home | Current Version | Previous Version | Text Only | Print | Product List | Glossary On
Versions: 1 2 3 4 5 6 7 8 9 10 11 12 13 14 15 16 17 18 19 20 21 22 23 24 25 26 27 28 29 30 31 32 33 34 35 36 37 38 39 40 41 42 43 44 45 46 47 48 49 50
000
ASUS42 KMHX 241925
RWRMHX
WEATHER ROUNDUP FOR EASTERN NORTH CAROLINA
NATIONAL WEATHER SERVICE NEWPORT/MOREHEAD CITY NC
300 PM EDT TUE MAY 24 2016

NOTE: "FAIR" INDICATES FEW OR NO CLOUDS BELOW 12,000 FEET
WITH NO SIGNIFICANT WEATHER AND/OR OBSTRUCTIONS TO VISIBILITY

NCZ015>017-031-032-045>047-102-103-242000-
NORTH COAST

CITY           SKY/WX    TMP DP  RH WIND       PRES   REMARKS
EDENTON        SUNNY     82  59  45 W7        30.06S
ELIZABETH CITY SUNNY     81  56  42 W9        30.04S
KITTY HAWK     CLEAR     81  53  37 W9        30.05S
MANTEO         SUNNY     78  54  43 NW7       30.06S

$$

NCZ045>047-081-094-103-104-242000-
CENTRAL COAST

CITY           SKY/WX    TMP DP  RH WIND       PRES   REMARKS
FRISCO         SUNNY     73  60  63 SW9       30.09F

$$

NCZ095-097-098-100-101-242000-
SOUTHERN COAST

CITY           SKY/WX    TMP DP  RH WIND       PRES   REMARKS
BEAUFORT       SUNNY     73  60  63 SW18      30.11S
CEDAR ISLAND   NOT AVBL
JACKSONVILLE   SUNNY     80  52  37 W10       30.10S
PINEY ISLAND   CLEAR    N/A N/A N/A W13G20    30.09S
WILMINGTON     SUNNY     81  51  35 W7        30.12S


$$

NCZ011>013-027>030-043-044-078>080-089-090>093-098-242000-
COASTAL PLAIN

CITY           SKY/WX    TMP DP  RH WIND       PRES   REMARKS
AHOSKIE        SUNNY     80  55  43 W3        30.06S
CLINTON        SUNNY     82  55  39 NW7       30.11F
ELIZABETHTOWN  SUNNY     81  50  33 W6        30.12S
GOLDSBORO      SUNNY     82  51  34 W10G17    30.08S
GREENVILLE     SUNNY     82  54  36 W8        30.09S
HAVELOCK       MOSUNNY   80  56  43 W9G20     30.10S
KENANSVILLE    SUNNY     80  50  35 SW7       30.11F
KINSTON        SUNNY     82  52  34 W8        30.10S
NEW BERN       SUNNY     81  56  42 W10       30.10S
RICHLANDS      SUNNY     81  56  42 SW10      30.11S
ROCKY MOUNT    MOSUNNY   82  54  37 MISG      30.08S
WASHINGTON     SUNNY     81  55  41 W8G17     30.08R
WHITEVILLE     SUNNY     81  51  35 CALM      30.12F

$$

AMZ130-135-150-152-154-156-158-170-250-252-270-ANZ085-086-088-633-658-670-242000-
MARINE OBSERVATIONS

STATION/POSITION TIME  TEMP    WIND        PRES    WAVE   SWELL
                       AIR SEA DIR/SP/G            HT/PER HT/PER
                 (UTC) (F)     (DEG/KT/KT) (MB)    (FT/S) (FT/S)
CHESAPEAKE LIGHT 1900   72     290/ 14/ 14 1017.5
64 E VA BEACH    1850   61 57  230/ 10/ 12 1017.0    3/ 9   3/ 9
DUCK             1900   74 61  240/ 12/ 15 1016.9
2 E DUCK         1811      63                N/A     3/10   2/11
OREGON INLET     1900   70 64  190/ 13/ 17 1017.8
13E OREGON INLT  1900      63                N/A     3/ 9   2/ 9
HATTERAS CG      1900   71 66  210/ 10/ 13 1018.5
DIAMOND BUOY     1850   72 79  240/ 14/ 17 1019.1    4/ 9   3/ 9
CAPE LOOKOUT     1900   72     220/ 11/ 15 1019.4
BEAUFORT LAB     1900   72 67  210/ 14/ 19 1018.7
30 SE NEW RVR IN 1825      74                N/A     2/ 9
27 SE WRIGHTSVLE 1908   72 73  220/ 14/ 17 1020.5
5 SE WRIGHTSVLE  NOT AVBL
225 S CAPE HAT   1850   73 78  340/  8/ 12 1021.0    5/ 9   5/ 9
41 SE CHARLESTON NOT AVBL

$$



USA.gov is the U.S. government's official web portal to all federal, state and local government web resources and services.